Weather History for KLXV - July, 2013

Change the Weather History Date:

Monday, July 8, 2013

  Actual Average Record
Temperature  
Mean Temperature 56 °F -  
Max Temperature 72 °F 70 °F - ()
Min Temperature 40 °F 37 °F - ()
Degree Days  
Heating Degree Days 9 11  
Month to date heating degree days 68 94  
Since 1 June heating degree days 439 574  
Since 1 July heating degree days 68 94  
Cooling Degree Days 0 0  
Month to date cooling degree days 0 0  
Year to date cooling degree days 0 0  
Since 1 June cooling degree days 0 0  
Growing Degree Days 6 (Base 50)    
Moisture  
Dew Point 39 °F    
Average Humidity 60    
Maximum Humidity 96    
Minimum Humidity 23    
Precipitation  
Precipitation T in 0.05 in - ()
Month to date precipitation 0.37 0.36  
Year to date precipitation 7.83 5.43  
Sea Level Pressure  
Sea Level Pressure 30.07 in    
Wind  
Wind Speed 6 mph (NNW)    
Max Wind Speed 22 mph    
Max Gust Speed 30 mph    
Visibility 10 miles    
Events Rain , Thunderstorm    
T = Trace of Precipitation, MM = Missing Value Source: NWS Daily Summary

Daily Weather History Graph

Daily Weather History Graph

Search for Another Location

Airport or City:

Trip Planner

Search our weather history database for the weather conditions in past years. The results will help you decide how hot, cold, wet, or windy it might be!

Date:

Astronomy

Jul. 08, 2013 Rise Set
Actual Time 5:46 AM MDT 8:33 PM MDT
Civil Twilight 5:14 AM MDT 9:05 PM MDT
Nautical Twilight 4:34 AM MDT 9:45 PM MDT
Astronomical Twilight 3:49 AM MDT 10:30 PM MDT
Moon 6:17 AM MDT (7/8) 8:38 PM MDT (7/8)
Length of Visible Light 15h 50m
Length of Day
14h 47m
New Moon, 0% of the Moon is Illuminated
Jul 8
New Moon
Jul 15
First Quarter
Jul 22
Full
Jul 29
Last Quarter
Aug 6
New

Hourly Weather History & Observations

Time (MDT) Temp. Windchill Dew Point Humidity Pressure Visibility Wind Dir Wind Speed Gust Speed Precip Events Conditions
12:15 AM 48.2 °F - 46.4 °F 93% 30.51 in 10.0 mi SSE 6.9 mph - N/A Thunderstorm Scattered Clouds
12:28 AM 48.2 °F - 46.4 °F 93% 30.52 in 4.0 mi SE 10.4 mph - 0.00 in Rain , Thunderstorm Thunderstorms and Rain
12:53 AM 48.9 °F - 46.0 °F 90% 30.01 in 10.0 mi Variable 5.8 mph - 0.06 in Thunderstorm Overcast
1:09 AM 48.2 °F - 44.6 °F 87% 30.53 in 10.0 mi NNE 4.6 mph - N/A   Overcast
1:53 AM 50.0 °F - 46.0 °F 86% 29.99 in 10.0 mi Calm Calm - 0.00 in Rain Light Rain
2:53 AM 46.9 °F - 46.0 °F 97% 29.98 in 10.0 mi WSW 3.5 mph - 0.00 in   Partly Cloudy
3:53 AM 44.1 °F 41.5 °F 42.1 °F 93% 29.99 in 10.0 mi East 4.6 mph - N/A   Clear
4:53 AM 42.1 °F 38.4 °F 41.0 °F 96% 30.00 in 10.0 mi ENE 5.8 mph - N/A   Clear
5:53 AM 41.0 °F - 39.9 °F 96% 30.01 in 10.0 mi Calm Calm - N/A   Clear
6:53 AM 45.0 °F - 42.1 °F 90% 30.04 in 10.0 mi Calm Calm - N/A   Clear
7:53 AM 50.0 °F - 45.0 °F 83% 30.06 in 10.0 mi Calm Calm - N/A   Clear
8:53 AM 54.0 °F - 45.0 °F 72% 30.06 in 10.0 mi Calm Calm - N/A   Clear
9:53 AM 62.1 °F - 42.1 °F 48% 30.01 in 10.0 mi Calm Calm - N/A   Clear
10:53 AM 66.0 °F - 39.9 °F 38% 30.00 in 10.0 mi WSW 10.4 mph 21.9 mph N/A   Partly Cloudy
11:53 AM 66.9 °F - 32.0 °F 27% 30.02 in 10.0 mi West 10.4 mph 27.6 mph N/A   Partly Cloudy
12:53 PM 69.1 °F - 34.0 °F 27% 29.99 in 10.0 mi NW 9.2 mph 16.1 mph N/A   Clear
1:53 PM 70.0 °F - 32.0 °F 25% 29.98 in 10.0 mi West 13.8 mph 27.6 mph N/A   Partly Cloudy
2:53 PM 70.0 °F - 32.0 °F 25% 29.98 in 10.0 mi WNW 10.4 mph 17.3 mph N/A   Partly Cloudy
3:53 PM 71.1 °F - 34.0 °F 26% 29.99 in 10.0 mi NNW 12.7 mph 18.4 mph 0.00 in   Clear
4:53 PM 70.0 °F - 32.0 °F 25% 30.01 in 10.0 mi NW 9.2 mph 19.6 mph N/A   Partly Cloudy
5:53 PM 68.0 °F - 30.9 °F 25% 30.03 in 10.0 mi West 6.9 mph 17.3 mph N/A   Scattered Clouds
6:53 PM 69.1 °F - 30.9 °F 24% 30.00 in 10.0 mi West 10.4 mph - N/A   Mostly Cloudy
7:53 PM 68.0 °F - 30.0 °F 24% 29.98 in 10.0 mi WNW 5.8 mph - N/A   Mostly Cloudy
8:53 PM 60.1 °F - 33.1 °F 36% 30.02 in 10.0 mi NE 3.5 mph - N/A   Clear
9:53 PM 55.0 °F - 35.1 °F 47% 30.01 in 10.0 mi ENE 3.5 mph - N/A   Clear
10:53 PM 51.1 °F - 36.0 °F 56% 30.03 in 10.0 mi NE 4.6 mph - N/A   Clear
11:53 PM 48.9 °F - 35.1 °F 59% 30.04 in 10.0 mi NNE 3.5 mph - N/A   Scattered Clouds